This demonstration page uses our WeatherBlox Daily Observations layout. Learn more.

Left ArrowRight Arrow

31.31129, -92.44514

Hourly Observations for April 12, 2016

Temp ( °F °C ) Dew Point ( °F °C ) Humidity (%) Winds ( mph kmh ) Pressure ( in mb ) Visibility ( mi km ) Precip ( " mm )
12:03 am 00:03 Cloudy 67 19.4 63 17.2 87 87 NE 12 19 30.00 1016 10 16 0.00 0.00
12:41 am 00:41 Cloudy with Rain 65 18.3 64 17.8 97 97 NE 9 15 30.00 1016 3 4 0.03 0.76
12:50 am 00:50 Cloudy with Light Rain 64 18 64 18 100 100 NE 12 19 30.03 1017 3 5 0.04 1.02
12:53 am 00:53 Cloudy with Rain 65 18.3 64 17.8 97 97 NE 10 17 30.02 1017 3 5 0.04 1.02
1:14 am 01:14 Cloudy with Light Rain 65 18.3 64 17.8 97 97 E 12 19 30.00 1016 6 10 0.03 0.76
1:53 am 01:53 Cloudy with Light Rain 64 17.8 64 17.8 100 100 E 7 11 30.02 1017 9 14 0.03 0.76
2:53 am 02:53 Cloudy 64 17.8 63 17.2 96 96 E 10 17 30.01 1016 10 16 0.01 0.25
3:18 am 03:18 Mostly Cloudy 64 17.8 63 17.2 96 96 E 8 13 30.00 1016 10 16 0.00 0.00
3:26 am 03:26 Partly Cloudy 64 17.8 63 17.2 96 96 E 6 9 30.00 1016 10 16 0.00 0.00
3:33 am 03:33 Mostly Cloudy 64 17.8 64 17.8 100 100 ENE 3 6 30.00 1016 10 16 0.00 0.00
3:45 am 03:45 Mostly Cloudy 64 17.8 64 17.8 100 100 NNW 5 7 30.03 1017 10 16 0.00 0.00
3:53 am 03:53 Cloudy 64 17.8 64 17.8 100 100 NNW 3 6 30.02 1017 10 16 0.00 0.00
4:04 am 04:04 Cloudy 65 18.3 64 17.8 97 97 N 3 6 30.00 1016 10 16 0.00 0.00
4:45 am 04:45 Cloudy 64 17.8 64 17.8 100 100 NNE 3 6 30.00 1016 10 16 0.00 0.00
4:53 am 04:53 Cloudy 64 17.8 64 17.8 100 100 N 6 9 30.02 1017 10 16 0.00 0.00
5:53 am 05:53 Cloudy 64 17.8 64 17.8 100 100 ENE 6 9 30.04 1017 10 16 0.00 0.00
6:00 am 06:00 Cloudy 64 17.8 64 17.8 100 100 NE 6 9 30.03 1017 10 16 0.00 0.00
6:53 am 06:53 Cloudy 64 17.8 63 17.2 96 96 ENE 6 9 30.06 1018 10 16 0.00 0.00
7:53 am 07:53 Cloudy 64 17.8 63 17.2 96 96 NE 5 7 30.09 1019 10 16 0.00 0.00
8:12 am 08:12 Cloudy 65 18.3 63 17.2 93 93 NE 6 9 30.09 1019 10 16 0.00 0.00
8:49 am 08:49 Cloudy 64 18 63 17 94 94 NE 8 13 30.09 1019 10 16 0.00 0.00
8:53 am 08:53 Cloudy 65 18.3 63 17.2 93 93 NE 7 11 30.11 1020 10 16 0.00 0.00
9:18 am 09:18 Cloudy 65 18.3 63 17.2 93 93 NNE 9 15 30.09 1019 10 16 0.00 0.00
9:53 am 09:53 Cloudy 66 18.9 63 17.2 90 90 NE 12 19 30.11 1020 10 16 0.00 0.00
10:04 am 10:04 Cloudy 66 18.9 63 17.2 90 90 NE 9 15 30.09 1019 10 16 0.00 0.00
10:30 am 10:30 Cloudy 65 18.3 63 17.2 93 93 NNE 9 15 30.12 1020 7 11 0.00 0.00
10:53 am 10:53 Cloudy 64 17.8 62 16.7 93 93 NNE 10 17 30.13 1020 8 13 0.00 0.00
11:53 am 11:53 Cloudy 64 17.8 61 16.1 90 90 NE 10 17 30.13 1020 10 16 0.00 0.00
12:32 pm 12:32 Mostly Sunny 64 17.8 60 15.6 87 87 NE 8 13 30.12 1020 10 16 0.00 0.00
12:53 pm 12:53 Mostly Sunny 65 18.3 61 16.1 87 87 NE 9 15 30.13 1020 10 16 0.00 0.00
1:35 pm 13:35 Mostly Cloudy 66 18.9 61 16.1 84 84 NE 7 11 30.12 1020 10 16 0.00 0.00
1:45 pm 13:45 Mostly Cloudy 67 19.4 61 16.1 81 81 NE 8 13 30.12 1020 10 16 0.00 0.00
1:53 pm 13:53 Mostly Cloudy 68 20 61 16.1 78 78 NNE 10 17 30.12 1020 10 16 0.00 0.00
2:00 pm 14:00 Mostly Sunny 67 19.4 61 16.1 81 81 NNE 10 17 30.12 1020 10 16 0.00 0.00
2:24 pm 14:24 Mostly Cloudy 68 20 61 16.1 78 78 NNE 7 11 30.12 1020 10 16 0.00 0.00
2:53 pm 14:53 Mostly Cloudy 68 20 61 16.1 78 78 NE 6 9 30.11 1020 10 16 0.00 0.00
3:00 pm 15:00 Mostly Sunny 69 20.6 61 16.1 76 76 NE 7 11 30.09 1019 10 16 0.00 0.00
3:25 pm 15:25 Mostly Cloudy 69 20.6 61 16.1 76 76 ENE 10 17 30.09 1019 10 16 0.00 0.00
3:53 pm 15:53 Mostly Cloudy 69 20.6 61 16.1 76 76 N 9 15 30.09 1019 10 16 0.00 0.00
4:00 pm 16:00 Mostly Sunny 69 20.6 61 16.1 76 76 N 9 15 30.09 1019 10 16 0.00 0.00
4:18 pm 16:18 Mostly Cloudy 69 20.6 61 16.1 76 76 N 9 15 30.09 1019 10 16 0.00 0.00
4:53 pm 16:53 Mostly Cloudy 69 20.6 61 16.1 76 76 NNE 10 17 30.11 1020 10 16 0.00 0.00
5:00 pm 17:00 Mostly Sunny 69 20.6 61 16.1 76 76 NNE 10 17 30.12 1020 10 16 0.00 0.00
5:53 pm 17:53 Mostly Sunny 69 20.6 61 16.1 76 76 N 12 19 30.09 1019 10 16 0.00 0.00
6:53 pm 18:53 Mostly Sunny 69 20.6 61 16.1 76 76 NNE 9 15 30.09 1019 10 16 0.00 0.00
7:53 pm 19:53 Mostly Clear N/A N/A N/A ENE 5 7 N/A 10 16 0.00 0.00
8:53 pm 20:53 Mostly Clear 66 18.9 60 15.6 81 81 E 5 7 30.10 1019 10 16 0.00 0.00
9:53 pm 21:53 Mostly Clear 66 18.9 60 15.6 81 81 ENE 6 9 30.10 1019 10 16 0.00 0.00
10:53 pm 22:53 Mostly Clear 64 17.8 59 15 84 84 NE 3 6 30.09 1019 10 16 0.00 0.00
11:53 pm 23:53 Mostly Clear 64 17.8 59 15 84 84 NE 3 6 30.09 1019 10 16 0.00 0.00

Powered by AerisWeather